| time (UTC) | temp C | wind direction | speed KPH | gust KPH | rain 1hr cm | rain 24hr cm | rain mn cm | humidity % | barometer mb |
| 20260504192043 | 28 | 110 | 3.2 | 9.7 | 0.00 | 0.00 | 0.00 | 49 | 1016.7 |
| 20260504191545 | 28 | 241 | 1.6 | 11.3 | 0.00 | 0.00 | 0.00 | 47 | 1016.5 |
| 20260504191042 | 28 | 278 | 1.6 | 11.3 | 0.00 | 0.00 | 0.00 | 49 | 1016.7 |
| 20260504190542 | 28 | 122 | 0.0 | 8.0 | 0.00 | 0.00 | 0.00 | 49 | 1016.7 |
| 20260504190042 | 28 | 109 | 1.6 | 6.4 | 0.00 | 0.00 | 0.00 | 47 | 1016.7 |
| 20260504185534 | 28 | 311 | 0.0 | 9.7 | 0.00 | 0.00 | 0.00 | 48 | 1016.9 |
| 20260504185029 | 28 | 119 | 0.0 | 9.7 | 0.00 | 0.00 | 0.00 | 50 | 1016.9 |
| 20260504184629 | 28 | 229 | 3.2 | 9.7 | 0.00 | 0.00 | 0.00 | 47 | 1017.0 |
| 20260504184029 | 27 | 323 | 1.6 | 9.7 | 0.00 | 0.00 | 0.00 | 47 | 1017.0 |
| 20260504183525 | 27 | 279 | 3.2 | 8.0 | 0.00 | 0.00 | 0.00 | 45 | 1017.0 |
| 20260504183033 | 27 | 101 | 1.6 | 6.4 | 0.00 | 0.00 | 0.00 | 44 | 1017.1 |
| 20260504182531 | 28 | 281 | 1.6 | 6.4 | 0.00 | 0.00 | 0.00 | 42 | 1017.1 |
| 20260504182026 | 28 | 91 | 1.6 | 9.7 | 0.00 | 0.00 | 0.00 | 44 | 1017.2 |
| 20260504181525 | 27 | 323 | 1.6 | 9.7 | 0.00 | 0.00 | 0.00 | 43 | 1017.2 |
| 20260504181024 | 27 | 333 | 1.6 | 9.7 | 0.00 | 0.00 | 0.00 | 45 | 1017.2 |
| 20260504180523 | 28 | 290 | 1.6 | 9.7 | 0.00 | 0.00 | 0.00 | 46 | 1017.1 |
| 20260504180020 | 28 | 160 | 0.0 | 9.7 | 0.00 | 0.00 | 0.00 | 46 | 1017.2 |
| 20260504175520 | 27 | 202 | 0.0 | 6.4 | 0.00 | 0.00 | 0.00 | 45 | 1017.1 |
| 20260504175018 | 27 | 91 | 0.0 | 14.5 | 0.00 | 0.00 | 0.00 | 42 | 1017.1 |
| 20260504174014 | 28 | 149 | 0.0 | 9.7 | 0.00 | 0.00 | 0.00 | 46 | 1017.3 |
| 20260504173511 | 28 | 317 | 1.6 | 9.7 | 0.00 | 0.00 | 0.00 | 46 | 1017.4 |
| 20260504173009 | 27 | 44 | 0.0 | 8.0 | 0.00 | 0.00 | 0.00 | 46 | 1017.4 |
| 20260504172507 | 27 | 219 | 0.0 | 8.0 | 0.00 | 0.00 | 0.00 | 45 | 1017.4 |
| 20260504172007 | 27 | 316 | 1.6 | 9.7 | 0.00 | 0.00 | 0.00 | 44 | 1017.4 |
| 20260504171508 | 27 | 88 | 0.0 | 6.4 | 0.00 | 0.00 | 0.00 | 46 | 1017.4 |
| 20260504171005 | 27 | 284 | 1.6 | 8.0 | 0.00 | 0.00 | 0.00 | 42 | 1017.4 |
| 20260504170505 | 27 | 75 | 1.6 | 8.0 | 0.00 | 0.00 | 0.00 | 44 | 1017.5 |
| 20260504151036 | 26 | 239 | 1.6 | 6.4 | 0.00 | 0.00 | 0.00 | 48 | 1018.3 |
| 20260504150537 | 25 | 204 | 0.0 | 4.8 | 0.00 | 0.00 | 0.00 | 47 | 1018.3 |
| 20260504141051 | 23 | 333 | 0.0 | 4.8 | 0.00 | 0.00 | 0.00 | 55 | 1018.4 |
| 20260504140552 | 22 | 331 | 0.0 | 3.2 | 0.00 | 0.00 | 0.00 | 56 | 1018.5 |
| 20260504130504 | 18 | 15 | 0.0 | 3.2 | 0.00 | 0.00 | 0.00 | 77 | 1018.4 |
| 20260504110553 | 12 | 359 | 0.0 | 0.0 | 0.00 | 0.00 | 0.00 | 93 | 1017.5 |
| 20260504100529 | 12 | 359 | 0.0 | 0.0 | 0.00 | 0.00 | 0.00 | 93 | 1017.2 |
| 20260504081507 | 12 | 359 | 0.0 | 0.0 | 0.00 | 0.00 | 0.00 | 92 | 1017.4 |
| 20260504081007 | 12 | 359 | 0.0 | 0.0 | 0.00 | 0.00 | 0.00 | 92 | 1017.4 |
| 20260504080505 | 12 | 359 | 0.0 | 0.0 | 0.00 | 0.00 | 0.00 | 92 | 1017.4 |
| 20260504050530 | 13 | 359 | 0.0 | 0.0 | 0.00 | 0.00 | 0.00 | 90 | 1018.4 |
| 20260504045126 | 13 | 359 | 0.0 | 0.0 | 0.00 | 0.00 | 0.00 | 89 | 1018.6 |
| 20260504044035 | 13 | 359 | 0.0 | 0.0 | 0.00 | 0.00 | 0.00 | 89 | 1018.5 |
| 20260504043523 | 13 | 359 | 0.0 | 0.0 | 0.00 | 0.00 | 0.00 | 89 | 1018.5 |
| 20260504043024 | 13 | 359 | 0.0 | 0.0 | 0.00 | 0.00 | 0.00 | 89 | 1018.5 |
| 20260504042519 | 13 | 359 | 0.0 | 0.0 | 0.00 | 0.00 | 0.00 | 89 | 1018.5 |
| 20260504042018 | 13 | 359 | 0.0 | 0.0 | 0.00 | 0.00 | 0.00 | 89 | 1018.5 |
| 20260504041515 | 13 | 359 | 0.0 | 0.0 | 0.00 | 0.00 | 0.00 | 88 | 1018.4 |
| 20260504041014 | 13 | 359 | 0.0 | 0.0 | 0.00 | 0.00 | 0.00 | 88 | 1018.5 |
| 20260504040512 | 13 | 359 | 0.0 | 0.0 | 0.00 | 0.00 | 0.00 | 88 | 1018.5 |
| 20260504040008 | 13 | 359 | 0.0 | 0.0 | 0.00 | 0.00 | 0.00 | 88 | 1018.5 |
| 20260504035512 | 14 | 359 | 0.0 | 0.0 | 0.00 | 0.00 | 0.00 | 88 | 1018.5 |
| 20260504035013 | 14 | 359 | 0.0 | 0.0 | 0.00 | 0.00 | 0.00 | 88 | 1018.5 |
| 20260504034508 | 14 | 359 | 0.0 | 0.0 | 0.00 | 0.00 | 0.00 | 87 | 1018.5 |
| 20260504034014 | 14 | 359 | 0.0 | 0.0 | 0.00 | 0.00 | 0.00 | 87 | 1018.5 |
| 20260504033607 | 14 | 359 | 0.0 | 0.0 | 0.00 | 0.00 | 0.00 | 87 | 1018.5 |
| 20260504033003 | 14 | 359 | 0.0 | 0.0 | 0.00 | 0.00 | 0.00 | 87 | 1018.6 |
| 20260504032603 | 14 | 359 | 0.0 | 0.0 | 0.00 | 0.00 | 0.00 | 87 | 1018.6 |
| 20260504032007 | 14 | 359 | 0.0 | 0.0 | 0.00 | 0.00 | 0.00 | 86 | 1018.6 |
| 20260504031501 | 15 | 359 | 0.0 | 0.0 | 0.00 | 0.00 | 0.00 | 86 | 1018.6 |
| 20260504031001 | 15 | 359 | 0.0 | 0.0 | 0.00 | 0.00 | 0.00 | 86 | 1018.6 |
| 20260504030503 | 15 | 359 | 0.0 | 0.0 | 0.00 | 0.00 | 0.00 | 86 | 1018.6 |
| 20260504030100 | 15 | 359 | 0.0 | 0.0 | 0.00 | 0.00 | 0.00 | 85 | 1018.5 |
| 20260504025559 | 15 | 359 | 0.0 | 0.0 | 0.00 | 0.00 | 0.00 | 85 | 1018.6 |
| 20260504025501 | 15 | 359 | 0.0 | 0.0 | 0.00 | 0.00 | 0.00 | 85 | 1018.6 |
| 20260504025059 | 15 | 359 | 0.0 | 0.0 | 0.00 | 0.00 | 0.00 | 85 | 1018.4 |
| 20260504024601 | 15 | 359 | 0.0 | 0.0 | 0.00 | 0.00 | 0.00 | 85 | 1018.4 |
| 20260504024502 | 15 | 359 | 0.0 | 0.0 | 0.00 | 0.00 | 0.00 | 85 | 1018.4 |
| 20260504024102 | 15 | 359 | 0.0 | 0.0 | 0.00 | 0.00 | 0.00 | 84 | 1018.4 |
| 20260504023055 | 15 | 359 | 0.0 | 0.0 | 0.00 | 0.00 | 0.00 | 84 | 1018.4 |
| 20260504022552 | 15 | 359 | 0.0 | 0.0 | 0.00 | 0.00 | 0.00 | 83 | 1018.5 |
| 20260504022051 | 15 | 359 | 0.0 | 0.0 | 0.00 | 0.00 | 0.00 | 83 | 1018.4 |
| 20260504021049 | 16 | 359 | 0.0 | 0.0 | 0.00 | 0.00 | 0.00 | 82 | 1018.2 |
| 20260504020552 | 16 | 359 | 0.0 | 0.0 | 0.00 | 0.00 | 0.00 | 81 | 1018.1 |
| 20260504020056 | 16 | 359 | 0.0 | 0.0 | 0.00 | 0.00 | 0.00 | 81 | 1018.1 |
| 20260504015549 | 16 | 359 | 0.0 | 0.0 | 0.00 | 0.00 | 0.00 | 81 | 1018.0 |
| 20260504015047 | 16 | 359 | 0.0 | 0.0 | 0.00 | 0.00 | 0.00 | 81 | 1018.0 |
| 20260504014556 | 16 | 359 | 0.0 | 0.0 | 0.00 | 0.00 | 0.00 | 80 | 1017.9 |
| 20260504014048 | 16 | 359 | 0.0 | 0.0 | 0.00 | 0.00 | 0.00 | 78 | 1017.9 |
| 20260504013545 | 16 | 359 | 0.0 | 0.0 | 0.00 | 0.00 | 0.00 | 78 | 1017.8 |
| 20260504013046 | 16 | 359 | 0.0 | 0.0 | 0.00 | 0.00 | 0.00 | 78 | 1017.7 |
| 20260504012550 | 17 | 359 | 0.0 | 0.0 | 0.00 | 0.00 | 0.00 | 77 | 1017.6 |
| 20260504012044 | 17 | 359 | 0.0 | 0.0 | 0.00 | 0.00 | 0.00 | 76 | 1017.6 |
| 20260504011542 | 17 | 359 | 0.0 | 0.0 | 0.00 | 0.00 | 0.00 | 75 | 1017.6 |
| 20260504011038 | 17 | 359 | 0.0 | 0.0 | 0.00 | 0.00 | 0.00 | 75 | 1017.6 |
| 20260504010541 | 17 | 359 | 0.0 | 1.6 | 0.00 | 0.00 | 0.00 | 75 | 1017.6 |
| 20260504010041 | 17 | 3 | 0.0 | 1.6 | 0.00 | 0.00 | 0.00 | 74 | 1017.5 |
| 20260504005539 | 17 | 4 | 0.0 | 1.6 | 0.00 | 0.00 | 0.00 | 73 | 1017.4 |
| 20260504005039 | 17 | 4 | 0.0 | 1.6 | 0.00 | 0.00 | 0.00 | 72 | 1017.4 |
| 20260504004536 | 17 | 5 | 0.0 | 0.0 | 0.00 | 0.00 | 0.00 | 72 | 1017.4 |
| 20260504004038 | 18 | 5 | 0.0 | 0.0 | 0.00 | 0.00 | 0.00 | 71 | 1017.3 |
| 20260504003542 | 18 | 5 | 0.0 | 0.0 | 0.00 | 0.00 | 0.00 | 71 | 1017.4 |
| 20260504003034 | 18 | 5 | 0.0 | 0.0 | 0.00 | 0.00 | 0.00 | 70 | 1017.4 |
| 20260504002533 | 18 | 5 | 0.0 | 0.0 | 0.00 | 0.00 | 0.00 | 70 | 1017.3 |
| 20260504002032 | 18 | 5 | 0.0 | 1.6 | 0.00 | 0.00 | 0.00 | 68 | 1017.2 |
| 20260504001537 | 18 | 6 | 0.0 | 1.6 | 0.00 | 0.00 | 0.00 | 67 | 1017.3 |
| 20260504001033 | 19 | 5 | 0.0 | 0.0 | 0.00 | 0.00 | 0.00 | 67 | 1017.3 |
| 20260504000532 | 19 | 352 | 0.0 | 1.6 | 0.00 | 0.00 | 0.00 | 66 | 1017.4 |
| 20260504000040 | 19 | 4 | 0.0 | 3.2 | 0.00 | 0.00 | 0.00 | 65 | 1017.5 |
| 20260503235547 | 20 | 355 | 0.0 | 4.8 | 0.00 | 0.00 | 0.00 | 65 | 1017.5 |
| 20260503235026 | 20 | 149 | 0.0 | 4.8 | 0.00 | 0.00 | 0.00 | 63 | 1017.5 |
| 20260503234526 | 20 | 15 | 0.0 | 3.2 | 0.00 | 0.00 | 0.00 | 63 | 1017.5 |
| 20260503234026 | 20 | 278 | 0.0 | 3.2 | 0.00 | 0.00 | 0.00 | 63 | 1017.5 |
| 20260503233529 | 20 | 129 | 0.0 | 3.2 | 0.00 | 0.00 | 0.00 | 62 | 1017.4 |
| 20260503233025 | 21 | 101 | 0.0 | 6.4 | 0.00 | 0.00 | 0.00 | 62 | 1017.4 |
| 20260503232522 | 21 | 167 | 0.0 | 6.4 | 0.00 | 0.00 | 0.00 | 61 | 1017.4 |
| 20260503232024 | 21 | 126 | 0.0 | 3.2 | 0.00 | 0.00 | 0.00 | 61 | 1017.4 |
| 20260503231521 | 21 | 321 | 0.0 | 3.2 | 0.00 | 0.00 | 0.00 | 59 | 1017.3 |
| 20260503231021 | 22 | 253 | 0.0 | 1.6 | 0.00 | 0.00 | 0.00 | 58 | 1017.2 |
| 20260503230521 | 22 | 254 | 0.0 | 3.2 | 0.00 | 0.00 | 0.00 | 57 | 1017.2 |
| 20260503230021 | 22 | 15 | 0.0 | 3.2 | 0.00 | 0.00 | 0.00 | 56 | 1017.2 |
| 20260503225520 | 22 | 340 | 0.0 | 4.8 | 0.00 | 0.00 | 0.00 | 55 | 1017.3 |
| 20260503225018 | 22 | 352 | 0.0 | 4.8 | 0.00 | 0.00 | 0.00 | 56 | 1017.3 |
| 20260503224521 | 22 | 235 | 0.0 | 1.6 | 0.00 | 0.00 | 0.00 | 54 | 1017.3 |
| 20260503224016 | 22 | 325 | 0.0 | 1.6 | 0.00 | 0.00 | 0.00 | 54 | 1017.3 |
| 20260503223516 | 22 | 328 | 0.0 | 1.6 | 0.00 | 0.00 | 0.00 | 55 | 1017.4 |
| 20260503223016 | 22 | 312 | 0.0 | 3.2 | 0.00 | 0.00 | 0.00 | 54 | 1017.3 |
| 20260503222016 | 22 | 16 | 1.6 | 4.8 | 0.00 | 0.00 | 0.00 | 52 | 1017.2 |
| 20260503221511 | 22 | 295 | 0.0 | 3.2 | 0.00 | 0.00 | 0.00 | 53 | 1017.2 |
| 20260503221014 | 22 | 51 | 0.0 | 4.8 | 0.00 | 0.00 | 0.00 | 52 | 1017.2 |
| 20260503220612 | 22 | 100 | 0.0 | 4.8 | 0.00 | 0.00 | 0.00 | 53 | 1017.3 |
| 20260503220020 | 23 | 318 | 0.0 | 4.8 | 0.00 | 0.00 | 0.00 | 53 | 1017.2 |
| 20260503215510 | 23 | 309 | 1.6 | 4.8 | 0.00 | 0.00 | 0.00 | 53 | 1017.4 |
| 20260503215012 | 23 | 312 | 1.6 | 4.8 | 0.00 | 0.00 | 0.00 | 52 | 1017.3 |
| 20260503214522 | 24 | 354 | 0.0 | 3.2 | 0.00 | 0.00 | 0.00 | 54 | 1017.2 |
| 20260503214009 | 23 | 274 | 0.0 | 4.8 | 0.00 | 0.00 | 0.00 | 55 | 1017.2 |
| 20260503213509 | 23 | 344 | 0.0 | 8.0 | 0.00 | 0.00 | 0.00 | 55 | 1017.1 |
| 20260503213005 | 23 | 340 | 0.0 | 8.0 | 0.00 | 0.00 | 0.00 | 55 | 1017.1 |
| 20260503212508 | 23 | 326 | 1.6 | 6.4 | 0.00 | 0.00 | 0.00 | 54 | 1017.1 |
| 20260503212005 | 24 | 207 | 0.0 | 9.7 | 0.00 | 0.00 | 0.00 | 55 | 1017.1 |
| 20260503211503 | 24 | 321 | 0.0 | 9.7 | 0.00 | 0.00 | 0.00 | 53 | 1017.2 |
| 20260503211004 | 24 | 278 | 1.6 | 9.7 | 0.00 | 0.00 | 0.00 | 52 | 1017.2 |
| 20260503210502 | 24 | 253 | 0.0 | 6.4 | 0.00 | 0.00 | 0.00 | 53 | 1017.2 |
| 20260503210005 | 25 | 96 | 0.0 | 6.4 | 0.00 | 0.00 | 0.00 | 54 | 1017.2 |
| 20260503205502 | 24 | 144 | 0.0 | 4.8 | 0.00 | 0.00 | 0.00 | 56 | 1017.2 |
| 20260503205103 | 24 | 227 | 0.0 | 6.4 | 0.00 | 0.00 | 0.00 | 54 | 1017.2 |
| 20260503205004 | 24 | 318 | 0.0 | 6.4 | 0.00 | 0.00 | 0.00 | 55 | 1017.3 |
| 20260503204508 | 24 | 326 | 0.0 | 6.4 | 0.00 | 0.00 | 0.00 | 56 | 1017.3 |
| 20260503204013 | 24 | 315 | 0.0 | 4.8 | 0.00 | 0.00 | 0.00 | 56 | 1017.4 |
| 20260503203105 | 25 | 144 | 1.6 | 11.3 | 0.00 | 0.00 | 0.00 | 52 | 1017.5 |
| 20260503202555 | 25 | 297 | 0.0 | 11.3 | 0.00 | 0.00 | 0.00 | 55 | 1017.5 |
| 20260503202053 | 25 | 321 | 1.6 | 8.0 | 0.00 | 0.00 | 0.00 | 54 | 1017.5 |
| 20260503201551 | 25 | 88 | 3.2 | 8.0 | 0.00 | 0.00 | 0.00 | 54 | 1017.5 |
| 20260503201052 | 25 | 236 | 1.6 | 9.7 | 0.00 | 0.00 | 0.00 | 51 | 1017.6 |
| 20260503200549 | 25 | 243 | 0.0 | 12.9 | 0.00 | 0.00 | 0.00 | 55 | 1017.6 |
| 20260503200050 | 25 | 268 | 0.0 | 6.4 | 0.00 | 0.00 | 0.00 | 54 | 1017.6 |
| 20260503200003 | 25 | 274 | 0.0 | 6.4 | 0.00 | 0.00 | 0.00 | 55 | 1017.6 |
| 20260503195549 | 25 | 266 | 0.0 | 8.0 | 0.00 | 0.00 | 0.00 | 55 | 1017.7 |
| 20260503195154 | 25 | 13 | 1.6 | 8.0 | 0.00 | 0.00 | 0.00 | 54 | 1017.9 |
| 20260503194554 | 25 | 68 | 1.6 | 9.7 | 0.00 | 0.00 | 0.00 | 56 | 1017.8 |
| 20260503194046 | 25 | 104 | 0.0 | 4.8 | 0.00 | 0.00 | 0.00 | 56 | 1017.9 |
| 20260503193544 | 25 | 160 | 0.0 | 4.8 | 0.00 | 0.00 | 0.00 | 56 | 1017.8 |
| 20260503193043 | 24 | 135 | 1.6 | 4.8 | 0.00 | 0.00 | 0.00 | 56 | 1017.9 |
| 20260503192539 | 24 | 335 | 0.0 | 3.2 | 0.00 | 0.00 | 0.00 | 58 | 1018.0 |